Location: Unspecified
(48.7170°N, 0.0000°E)
Time: 01:39:40
(UTC+00:00)

ISS - Pass Details

Date: 29 May 2019
Orbit: 408 x 418 km, 51.6° (Epoch: 16 June)

Event Time Altitude Azimuth Distance (km) Brightness Sun altitude
Rises 22:53:51 0° 287° (WNW) 2,361 0.5 -18.2°
Reaches altitude 10° 22:56:14 10° 272° (W) 1,496 -0.8 -18.3°
Enters shadow 22:57:59 20° 243° (WSW) 1,048 -1.9 -18.3°
